Raleigh-Durham Airport, NC

6:10 AM EDT on August 24, 2019 (GMT -0400)
Raleigh-Durham International

Weather History for KRDU - July, 2019

Change the Weather History Date:

Tuesday, July 16, 2019

  Actual Average Record
Temperature  
Mean Temperature 84 °F 80 °F  
Max Temperature 96 °F 90 °F 101 °F (1887)
Min Temperature 71 °F 70 °F 58 °F (1960)
Degree Days  
Heating Degree Days 0 0  
Month to date heating degree days 0 0  
Since 1 June heating degree days 0 4  
Since 1 July heating degree days 0 0  
Cooling Degree Days 19 15  
Month to date cooling degree days 286 240  
Year to date cooling degree days 966 796  
Since 1 June cooling degree days 621 587  
Growing Degree Days 34 (Base 50)    
Moisture  
Dew Point 71 °F    
Average Humidity 71    
Maximum Humidity 100    
Minimum Humidity 42    
Precipitation  
Precipitation T in 0.16 in 2.63 in (1945)
Month to date precipitation 2.12 2.32  
Year to date precipitation 26.15 22.87  
Sea Level Pressure  
Sea Level Pressure 30.08 in    
Wind  
Wind Speed 3 mph (SSE)    
Max Wind Speed 15 mph    
Max Gust Speed 19 mph    
Visibility 10 miles    
Events Rain    
T = Trace of Precipitation, MM = Missing Value Source: NWS Daily Summary

Daily Weather History Graph

Daily Weather History Graph

Search for Another Location

Airport or City:

Astronomy

Jul. 16, 2019 Rise Set
Actual Time 6:10 AM EDT 8:31 PM EDT
Civil Twilight 5:41 AM EDT 9:00 PM EDT
Nautical Twilight 5:05 AM EDT 9:36 PM EDT
Astronomical Twilight 4:25 AM EDT 10:16 PM EDT
Moon 8:35 PM EDT (7/16) 5:48 AM EDT (7/16)
Length of Visible Light 15h 19m
Length of Day
14h 20m
Full, 100% of the Moon is Illuminated
Jul 16
Full
Jul 16
Full
Jul 24
Last Quarter
Jul 31
New
Aug 7
First Quarter

Hourly Weather History & Observations

Time (EDT) Temp. Heat Index Dew Point Humidity Pressure Visibility Wind Dir Wind Speed Gust Speed Precip Events Conditions
12:51 AM 73.0 °F - 72.0 °F 96% 30.08 in 10.0 mi East 3.5 mph - N/A   Mostly Cloudy
1:51 AM 73.0 °F - 71.1 °F 93% 30.07 in 10.0 mi Calm Calm - N/A   Mostly Cloudy
2:51 AM 72.0 °F - 71.1 °F 97% 30.06 in 10.0 mi Calm Calm - N/A   Mostly Cloudy
4:51 AM 72.0 °F - 72.0 °F 100% 30.07 in 10.0 mi Calm Calm - N/A   Scattered Clouds
5:51 AM 72.0 °F - 71.1 °F 97% 30.08 in 8.0 mi Calm Calm - N/A   Mostly Cloudy
6:51 AM 72.0 °F - 71.1 °F 97% 30.09 in 6.0 mi Calm Calm - N/A   Mostly Cloudy
7:51 AM 73.9 °F - 73.0 °F 97% 30.10 in 10.0 mi Calm Calm - N/A   Mostly Cloudy
8:51 AM 79.0 °F - 75.0 °F 88% 30.11 in 10.0 mi Calm Calm - N/A   Mostly Cloudy
9:51 AM 86.0 °F 95.1 °F 75.0 °F 70% 30.11 in 10.0 mi Calm Calm - N/A   Mostly Cloudy
10:51 AM 90.0 °F 95.4 °F 70.0 °F 52% 30.11 in 10.0 mi South 4.6 mph - N/A   Mostly Cloudy
11:51 AM 93.0 °F 97.9 °F 69.1 °F 45% 30.11 in 10.0 mi WSW 4.6 mph - N/A   Mostly Cloudy
12:51 PM 95.0 °F 99.5 °F 68.0 °F 41% 30.09 in 10.0 mi Variable 3.5 mph - N/A   Mostly Cloudy
1:51 PM 91.0 °F 95.6 °F 69.1 °F 48% 30.08 in 10.0 mi West 6.9 mph - 0.00 in Rain Light Rain
2:51 PM 91.0 °F 95.6 °F 69.1 °F 48% 30.06 in 10.0 mi ESE 8.1 mph - 0.00 in   Mostly Cloudy
3:51 PM 93.0 °F 100.1 °F 71.1 °F 49% 30.06 in 10.0 mi Variable 3.5 mph - N/A   Mostly Cloudy
4:51 PM 91.0 °F 97.6 °F 71.1 °F 52% 30.05 in 10.0 mi ESE 8.1 mph - N/A   Overcast
6:51 PM 88.0 °F 91.4 °F 68.0 °F 51% 30.04 in 10.0 mi SSE 5.8 mph - N/A   Overcast
7:51 PM 86.0 °F 91.5 °F 71.1 °F 61% 30.05 in 10.0 mi SSE 6.9 mph - N/A   Overcast
8:51 PM 82.9 °F 88.8 °F 73.0 °F 72% 30.05 in 10.0 mi ESE 5.8 mph - N/A   Mostly Cloudy
9:51 PM 81.0 °F 86.2 °F 73.9 °F 79% 30.07 in 10.0 mi SE 4.6 mph - N/A   Scattered Clouds
10:51 PM 81.0 °F 85.8 °F 73.0 °F 77% 30.08 in 10.0 mi Calm Calm - N/A   Scattered Clouds
11:51 PM 81.0 °F 85.2 °F 72.0 °F 74% 30.07 in 10.0 mi SSE 3.5 mph - N/A   Mostly Cloudy